Danville, VA

1:30 PM EDT on July 27, 2017 (GMT -0400)
Danville Regional

Weather History for KDAN - December, 2012

Change the Weather History Date:

Sunday, December 30, 2012

  Actual Average Record
Temperature  
Mean Temperature 37 °F 38 °F  
Max Temperature 46 °F 47 °F 76 °F (1984)
Min Temperature 27 °F 29 °F 13 °F (1977)
Degree Days  
Heating Degree Days 28 27  
Month to date heating degree days 545 746  
Since 1 July heating degree days 1372 1455  
Cooling Degree Days 0 0  
Month to date cooling degree days 0 0  
Year to date cooling degree days 1594 1439  
Moisture  
Dew Point 17 °F    
Average Humidity 40    
Maximum Humidity 52    
Minimum Humidity 28    
Precipitation  
Precipitation 0.00 in 0.08 in 1.30 in (1948)
Month to date precipitation 2.46 3.20  
Year to date precipitation 28.83 44.34  
Snow  
Snow 0.00 in - - ()
Month to date snowfall 0.0  
Since 1 July snowfall 0.0  
Snow Depth 0.00 in    
Sea Level Pressure  
Sea Level Pressure 30.23 in    
Wind  
Wind Speed 9 mph (WNW)    
Max Wind Speed 18 mph    
Max Gust Speed 28 mph    
Visibility 10 miles    
Events      
T = Trace of Precipitation, MM = Missing Value Source: NWS Daily Summary

Daily Weather History Graph

Daily Weather History Graph

Search for Another Location

Airport or City:

Trip Planner

Search our weather history database for the weather conditions in past years. The results will help you decide how hot, cold, wet, or windy it might be!

Date:

Astronomy

Dec. 30, 2012 Rise Set
Actual Time 7:29 AM EST 5:11 PM EST
Civil Twilight 7:00 AM EST 5:40 PM EST
Nautical Twilight 6:28 AM EST 6:12 PM EST
Astronomical Twilight 5:56 AM EST 6:43 PM EST
Moon 7:36 PM EST (12/30) 8:40 AM EST (12/30)
Length of Visible Light 10h 39m
Length of Day
9h 42m
Waning Gibbous, 95% of the Moon is Illuminated
Dec 30
Waning Gibbous
Jan 4
Last Quarter
Jan 11
New
Jan 18
First Quarter
Jan 26
Full

Hourly Weather History & Observations

Time (EST) Temp. Windchill Dew Point Humidity Pressure Visibility Wind Dir Wind Speed Gust Speed Precip Events Conditions
12:53 AM 37.0 °F 28.9 °F 21.0 °F 52% 29.96 in 10.0 mi WNW 12.7 mph 23.0 mph N/A   Clear
1:53 AM 37.0 °F 29.3 °F 21.0 °F 52% 29.99 in 10.0 mi WNW 11.5 mph 19.6 mph N/A   Partly Cloudy
2:53 AM 37.9 °F 32.7 °F 19.9 °F 48% 30.02 in 10.0 mi West 6.9 mph 16.1 mph N/A   Overcast
3:53 AM 37.0 °F 28.5 °F 18.0 °F 46% 30.04 in 10.0 mi WNW 13.8 mph 23.0 mph N/A   Mostly Cloudy
4:53 AM 37.0 °F 30.4 °F 19.0 °F 48% 30.08 in 10.0 mi West 9.2 mph - N/A   Mostly Cloudy
5:53 AM 36.0 °F 28.0 °F 17.1 °F 46% 30.11 in 10.0 mi NW 11.5 mph 20.7 mph N/A   Clear
6:53 AM 35.1 °F 26.4 °F 18.0 °F 50% 30.16 in 10.0 mi WNW 12.7 mph 18.4 mph N/A   Clear
7:53 AM 34.0 °F 27.2 °F 17.1 °F 50% 30.20 in 10.0 mi WNW 8.1 mph 16.1 mph N/A   Clear
8:53 AM 36.0 °F 27.5 °F 17.1 °F 46% 30.25 in 10.0 mi WNW 12.7 mph - N/A   Clear
9:53 AM 39.0 °F 30.6 °F 18.0 °F 43% 30.27 in 10.0 mi NNW 15.0 mph 20.7 mph N/A   Clear
10:53 AM 41.0 °F 34.7 °F 18.0 °F 40% 30.30 in 10.0 mi NW 10.4 mph 19.6 mph N/A   Clear
11:53 AM 43.0 °F 36.4 °F 18.0 °F 37% 30.28 in 10.0 mi NW 12.7 mph 17.3 mph N/A   Clear
12:53 PM 44.1 °F 37.7 °F 17.1 °F 34% 30.27 in 10.0 mi NNW 12.7 mph - N/A   Clear
1:53 PM 44.1 °F 39.5 °F 17.1 °F 34% 30.27 in 10.0 mi West 8.1 mph - N/A   Clear
2:53 PM 46.0 °F 40.6 °F 17.1 °F 31% 30.28 in 10.0 mi WNW 11.5 mph 19.6 mph N/A   Clear
3:53 PM 45.0 °F 39.3 °F 14.0 °F 29% 30.31 in 10.0 mi West 11.5 mph - N/A   Clear
4:53 PM 42.1 °F 39.2 °F 15.1 °F 34% 30.30 in 10.0 mi NNW 4.6 mph - N/A   Clear
5:53 PM 37.0 °F 31.6 °F 15.1 °F 41% 30.32 in 10.0 mi NNW 6.9 mph - N/A   Clear
6:53 PM 32.0 °F 28.7 °F 16.0 °F 52% 30.35 in 10.0 mi SW 3.5 mph - N/A   Clear
7:53 PM 36.0 °F 30.3 °F 16.0 °F 44% 30.37 in 10.0 mi WNW 6.9 mph - N/A   Clear
8:53 PM 33.1 °F 28.7 °F 16.0 °F 50% 30.37 in 10.0 mi West 4.6 mph - N/A   Clear
9:53 PM 34.0 °F 28.8 °F 16.0 °F 48% 30.36 in 10.0 mi WNW 5.8 mph - N/A   Clear
10:53 PM 32.0 °F 28.7 °F 16.0 °F 52% 30.38 in 10.0 mi West 3.5 mph - N/A   Clear
11:53 PM 27.0 °F 21.6 °F 17.1 °F 66% 30.37 in 10.0 mi WSW 4.6 mph - N/A   Clear